CAPE
0 0 0 0 0 0 0 0 0 0 0 0 0 0 0 0 0 0 0 0 50 118 71 25 80 114 250 410 422 449 434 361
0 0 0 0 0 0 0 0 0 0 0 0 0 0 0 0 0 0 0 0 0 0 9 14 33 122 251 388 380 486 563 550
0 0 0 0 0 0 0 0 0 0 0 0 0 0 0 0 0 0 0 0 0 0 2 0 4 35 200 355 392 436 745 753
0 0 0 0 0 0 0 0 0 0 0 0 0 0 0 0 0 0 0 0 0 0 0 3 0 10 62 332 373 402 851 969
0 0 0 0 0 0 0 0 0 0 0 0 0 0 0 0 0 0 0 0 0 0 0 0 0 0 27 211 456 432 504 1019
0 0 0 0 0 0 0 0 0 0 0 0 0 0 0 0 0 0 0 0 0 0 0 0 0 4 17 159 384 560 541 794
0 0 0 0 0 0 0 0 0 0 0 0 0 0 0 0 0 0 0 0 0 0 0 0 0 4 47 214 395 658 722 761
0 0 0 0 0 0 0 0 0 0 0 0 0 0 0 0 0 0 0 0 0 0 0 0 0 76 165 348 611 778 922 940
0 0 0 0 0 0 0 0 0 0 0 0 0 0 0 0 0 0 0 0 0 0 0 0 1 127 253 441 735 933 1089 1177
0 0 0 0 0 0 0 0 0 0 0 0 0 0 0 0 0 0 0 0 0 0 0 0 0 0 162 397 843 1140 1217 1270
0 0 0 0 0 0 0 0 0 0 0 0 0 0 0 0 0 0 0 0 0 0 0 0 0 0 179 448 856 1194 1436 1420
0 0 0 0 0 0 0 0 0 0 0 0 0 0 0 0 0 0 0 0 0 0 0 0 0 3 293 531 862 1087 1584 1702
0 0 0 0 2 0 0 0 0 1 0 0 0 0 0 0 0 13 28 0 0 0 0 0 0 38 344 478 783 1118 1409 1793
0 0 0 28 42 86 0 0 0 1 0 0 0 71 218 333 520 970 1384 1574 830 0 0 0 0 73 400 595 814 1030 1435 1775
0 0 0 83 70 0 1 1 0 0 0 174 195 31 5 0 0 1 68 463 1120 493 14 1 45 29 41 198 477 801 1202 1773
5 4 0 218 37 0 0 0 2 0 0 0 0 0 0 0 0 0 0 0 53 28 0 0 0 0 0 153 1072 529 950 1290
5 0 148 152 0 0 0 0 0 0 0 0 0 0 0 0 0 1 0 0 0 0 0 0 0 0 0 0 739 1606 408 981
7 0 113 15 0 0 0 0 0 0 0 0 0 0 0 0 0 1 0 0 0 0 0 0 0 0 0 0 201 1941 1780 733
0 9 75 1 0 0 0 0 0 0 0 0 0 0 0 0 0 1 0 0 1 0 3 0 0 15 3 0 0 1016 2018 1333
CIN
0 0 0 0 0 0 0 0 0 0 0 0 0 0 0 0 0 0 0 0 -471 -459 -515 -604 -596 -635 -656 -599 -573 -534 -499 -477
0 0 0 0 0 0 0 0 0 0 0 0 0 0 0 0 0 0 0 0 0 0 -528 -567 -663 -655 -683 -645 -640 -598 -524 -481
0 0 0 0 0 0 0 0 0 0 0 0 0 0 0 0 0 0 0 0 0 0 -531 0 -354 -709 -692 -686 -657 -623 -526 -487
0 0 0 0 0 0 0 0 0 0 0 0 0 0 0 0 0 0 0 0 0 0 0 -552 0 -596 -757 -697 -686 -716 -612 -519
0 0 0 0 0 0 0 0 0 0 0 0 0 0 0 0 0 0 0 0 0 0 0 0 0 0 -690 -722 -702 -720 -710 -572
0 0 0 0 0 0 0 0 0 0 0 0 0 0 0 0 0 0 0 0 0 0 0 0 0 -569 -797 -807 -717 -692 -695 -667
0 0 0 0 0 0 0 0 0 0 0 0 0 0 0 0 0 0 0 0 0 0 0 0 0 -503 -853 -851 -800 -727 -717 -689
0 0 0 0 0 0 0 0 0 0 0 0 0 0 0 0 0 0 0 0 0 0 0 0 0 -966 -891 -892 -853 -786 -766 -763
0 0 0 0 0 0 0 0 0 0 0 0 0 0 0 0 0 0 0 0 0 0 0 0 -299 -950 -793 -882 -829 -844 -835 -792
0 0 0 0 0 0 0 0 0 0 0 0 0 0 0 0 0 0 0 0 0 0 0 0 0 0 -781 -811 -864 -797 -788 -779
0 0 0 0 0 0 0 0 0 0 0 0 0 0 0 0 0 0 0 0 0 0 0 0 0 0 -988 -909 -820 -793 -749 -741
0 0 0 0 0 0 0 0 0 0 0 0 0 0 0 0 0 0 0 0 0 0 0 0 0 -650 -776 -762 -826 -822 -760 -767
0 0 0 0 -68 0 0 0 0 0 0 0 0 0 0 0 0 -433 -405 0 0 0 0 0 0 -657 -871 -842 -819 -832 -821 -722
0 0 0 -109 -101 -47 0 0 0 0 0 0 0 -493 -795 -879 -874 -792 -734 -716 -953 0 0 0 0 -910 -854 -929 -872 -850 -751 -690
0 0 0 -115 -207 0 0 0 0 0 0 -535 -666 -75 -97 0 0 -80 -1002 -908 -727 -942 -1237 -26 -1221 -1073 -1047 -1138 -961 -800 -729 -633
-19 -8 0 -109 -255 0 0 0 0 0 0 0 0 0 0 0 0 0 0 0 -949 -966 0 0 0 0 0 -1162 -802 -839 -778 -711
-8 0 -37 -63 0 0 0 0 0 0 0 0 0 0 0 0 0 0 0 0 0 0 0 0 0 0 0 0 -908 -629 -936 -750
-2 0 -17 -111 0 0 0 0 0 0 0 0 0 0 0 0 0 0 0 0 0 0 0 0 0 0 0 0 -673 -509 -541 -830
0 -58 -112 -20 0 0 0 0 0 0 0 0 0 0 0 0 0 0 0 0 0 0 -930 0 0 -1044 -1135 0 0 -617 -425 -583
Wind_Speed
7 6 17 6 12 9 5 1 2 6 9 5 6 10 9 18 12 15 20 21 24 24 21 20 21 22 23 21 21 20 20 18
16 6 8 12 9 5 2 7 6 5 6 7 8 14 13 9 13 17 19 20 22 21 22 21 21 21 20 21 22 21 21 18
7 10 20 4 7 4 6 7 7 1 9 9 10 12 13 16 17 18 17 19 21 20 21 22 19 18 21 21 20 20 19 18
7 2 5 21 12 8 7 12 4 5 11 5 10 12 12 11 12 11 13 17 19 21 19 18 20 19 20 21 21 22 20 19
4 5 1 5 13 8 12 3 16 9 9 9 4 7 10 11 10 8 11 11 12 12 16 19 19 19 19 20 22 19 18 19
3 1 4 7 5 8 16 13 17 19 14 6 5 8 8 10 10 10 10 11 11 11 16 17 19 21 19 19 19 17 18 19
2 12 7 12 15 12 11 21 17 19 24 11 9 11 15 14 7 8 8 8 10 13 13 13 15 16 17 17 18 19 19 19
4 9 10 12 13 14 14 11 10 21 11 9 13 10 7 10 9 11 10 10 10 11 12 14 17 18 18 18 20 20 20 22
5 7 12 16 9 16 9 8 12 18 12 8 7 10 15 16 11 13 13 11 10 14 15 15 17 19 20 20 17 20 21 20
5 5 9 4 10 9 15 18 17 15 8 13 16 15 17 17 16 15 14 12 11 10 12 14 16 14 11 11 17 19 19 18
4 6 13 20 4 6 1 10 11 16 13 10 16 9 8 8 11 15 13 12 11 10 9 10 9 10 13 14 15 15 18 18
1 7 8 4 2 6 4 6 6 10 17 15 8 5 7 11 8 13 10 5 7 7 3 3 9 11 14 14 16 18 19 21
11 7 7 6 6 3 5 6 18 12 16 14 10 12 3 5 5 2 1 2 4 4 5 4 4 8 12 14 18 21 17 15
8 7 16 1 0 2 5 11 17 14 12 8 4 7 5 6 6 6 8 8 8 8 8 7 5 5 5 11 11 3 7 14
10 8 8 5 5 4 5 10 12 12 11 4 10 7 4 5 7 7 7 7 7 10 10 8 8 8 5 6 4 4 7 9
8 11 10 3 4 3 4 9 12 7 7 6 12 8 10 7 7 7 6 6 4 8 10 9 6 6 5 2 2 2 7 6
11 27 7 4 2 3 6 7 8 8 6 3 10 9 8 9 9 6 5 4 5 8 7 5 5 6 5 5 4 2 5 6
9 10 6 3 4 3 9 4 6 5 4 6 7 9 9 12 11 11 10 9 11 10 7 4 2 0 2 4 3 3 4 5
6 9 6 6 4 2 8 3 4 4 6 4 4 7 12 13 11 9 11 11 9 7 7 8 8 8 8 3 4 6 7 8
Wind_Direction
184 156 163 190 198 167 82 299 33 219 301 320 190 219 220 228 222 212 212 210 213 211 206 201 202 196 192 194 200 197 200 197
203 123 195 158 163 124 18 192 246 275 265 222 203 200 214 224 211 217 214 211 212 208 209 206 203 198 194 197 197 196 198 197
113 199 197 145 181 100 144 158 186 76 255 206 208 219 212 214 211 214 212 211 214 211 208 206 204 193 196 197 195 196 194 195
201 219 244 213 194 151 167 223 240 171 244 210 227 208 193 223 225 223 213 211 212 213 204 201 198 200 193 195 195 197 192 194
50 323 257 181 228 185 218 90 214 197 249 246 217 198 220 230 238 221 229 227 217 208 198 197 195 198 197 197 202 196 191 194
227 238 352 307 313 204 209 224 229 230 255 285 276 246 244 234 235 224 216 220 211 199 204 200 196 193 193 201 200 194 194 195
244 285 256 245 256 265 247 225 219 237 243 237 233 231 232 235 237 254 241 216 201 200 198 194 187 193 195 194 191 190 193 200
280 272 306 287 267 256 245 236 263 259 257 199 213 216 257 245 241 240 239 218 206 204 190 185 189 190 190 190 193 189 193 201
265 312 318 292 249 236 225 194 213 242 230 241 227 218 223 236 229 231 243 245 206 203 196 194 193 192 195 194 187 191 197 199
244 336 247 259 293 268 250 221 210 238 212 210 226 227 222 217 220 227 234 242 229 212 208 202 201 196 191 179 186 193 202 198
199 210 296 308 336 32 27 283 236 206 220 216 227 273 269 211 211 224 225 229 232 220 217 206 182 183 167 176 188 193 200 198
158 213 221 221 216 281 170 256 304 230 208 210 143 202 256 256 207 222 226 229 237 256 259 225 223 165 168 184 186 199 200 203
236 261 280 250 292 314 202 293 323 309 287 228 188 216 216 113 61 40 149 265 233 189 212 180 185 175 190 185 196 206 201 198
213 236 245 312 41 177 322 306 307 298 279 228 142 117 104 92 86 67 64 43 44 70 46 13 8 160 183 201 220 223 201 196
198 214 221 171 231 245 284 314 304 297 305 187 129 101 67 82 68 55 50 54 64 84 79 51 57 63 49 5 345 170 180 196
300 235 223 259 239 267 49 325 311 326 0 14 111 111 104 81 60 55 37 36 60 72 62 51 41 70 100 42 32 172 217 206
236 257 188 199 199 273 64 324 332 2 27 336 97 86 90 92 80 71 79 78 69 75 79 62 12 18 13 5 10 11 247 196
235 243 205 212 240 185 98 336 315 331 22 20 44 89 86 68 67 59 47 36 44 50 73 74 102 35 297 299 323 270 231 200
255 277 226 188 192 198 95 54 333 318 309 49 32 73 81 84 72 66 60 53 41 28 12 17 12 10 3 354 292 270 226 196